Time,TemperatureF,DewpointF,PressureIn,WindDirection,WindDirectionDegrees,WindSpeedMPH,WindSpeedGustMPH,Humidity,HourlyPrecipIn,Conditions,Clouds,dailyrainin,SoftwareType,DateUTC
2013-01-24 00:13:00,18.7,10.0,30.19,NE,41,1.0,13.0,70,0.00,,,0.00,weatherlink.com 1.10,2013-01-24 05:13:00,
2013-01-24 00:28:00,18.1,10.0,30.20,NE,41,1.0,10.0,70,0.00,,,0.00,weatherlink.com 1.10,2013-01-24 05:28:00,
2013-01-24 00:43:00,17.9,10.0,30.20,NNE,32,3.0,16.0,70,0.00,,,0.00,weatherlink.com 1.10,2013-01-24 05:43:00,
2013-01-24 00:58:00,17.6,10.0,30.21,North,360,5.0,9.0,71,0.00,,,0.00,weatherlink.com 1.10,2013-01-24 05:58:00,
2013-01-24 01:13:00,17.5,10.0,30.22,West,263,4.0,12.0,72,0.00,,,0.00,weatherlink.com 1.10,2013-01-24 06:13:00,
2013-01-24 01:28:00,17.2,10.0,30.23,NNE,21,2.0,10.0,73,0.00,,,0.00,weatherlink.com 1.10,2013-01-24 06:28:00,
2013-01-24 01:43:00,17.1,10.0,30.24,West,280,2.0,9.0,75,0.00,,,0.00,weatherlink.com 1.10,2013-01-24 06:43:00,
2013-01-24 01:58:00,17.1,11.0,30.26,NNW,335,4.0,11.0,77,0.00,,,0.00,weatherlink.com 1.10,2013-01-24 06:58:00,
2013-01-24 02:13:00,17.0,12.0,30.28,NNE,23,2.0,12.0,79,0.00,,,0.00,weatherlink.com 1.10,2013-01-24 07:13:00,
2013-01-24 02:28:00,16.8,12.0,30.29,West,259,3.0,9.0,82,0.00,,,0.00,weatherlink.com 1.10,2013-01-24 07:28:00,
2013-01-24 02:43:00,17.2,14.0,30.31,NNW,336,2.0,10.0,86,0.00,,,0.00,weatherlink.com 1.10,2013-01-24 07:43:00,
2013-01-24 02:58:00,16.6,13.0,30.32,NNW,334,3.0,10.0,85,0.00,,,0.00,weatherlink.com 1.10,2013-01-24 07:58:00,
2013-01-24 03:13:00,15.8,12.0,30.34,NE,37,2.0,8.0,83,0.00,,,0.00,weatherlink.com 1.10,2013-01-24 08:13:00,
2013-01-24 03:29:00,15.0,10.0,30.35,NNW,347,3.0,7.0,81,0.00,,,0.00,weatherlink.com 1.10,2013-01-24 08:29:00,
2013-01-24 03:44:00,14.5,9.0,30.36,NNE,27,1.0,6.0,80,0.00,,,0.00,weatherlink.com 1.10,2013-01-24 08:44:00,
2013-01-24 03:59:00,14.0,9.0,30.37,NE,41,1.0,6.0,79,0.00,,,0.00,weatherlink.com 1.10,2013-01-24 08:59:00,
2013-01-24 04:14:00,13.7,8.0,30.38,WNW,284,2.0,5.0,78,0.00,,,0.00,weatherlink.com 1.10,2013-01-24 09:14:00,
2013-01-24 04:29:00,13.3,7.0,30.39,NW,308,0.0,7.0,76,0.00,,,0.00,weatherlink.com 1.10,2013-01-24 09:29:00,
2013-01-24 04:44:00,12.9,6.0,30.39,NNE,22,2.0,4.0,75,0.00,,,0.00,weatherlink.com 1.10,2013-01-24 09:44:00,
2013-01-24 04:59:00,12.1,6.0,30.40,ENE,63,0.0,4.0,76,0.00,,,0.00,weatherlink.com 1.10,2013-01-24 09:59:00,
2013-01-24 05:14:00,11.5,6.0,30.40,NNE,13,1.0,3.0,77,0.00,,,0.00,weatherlink.com 1.10,2013-01-24 10:14:00,
2013-01-24 05:29:00,10.5,5.0,30.41,WSW,249,0.0,2.0,78,0.00,,,0.00,weatherlink.com 1.10,2013-01-24 10:29:00,
2013-01-24 05:44:00,10.1,5.0,30.42,WNW,290,0.0,2.0,80,0.00,,,0.00,weatherlink.com 1.10,2013-01-24 10:44:00,
2013-01-24 05:59:00,9.8,5.0,30.43,West,262,0.0,1.0,80,0.00,,,0.00,weatherlink.com 1.10,2013-01-24 10:59:00,
2013-01-24 06:14:00,9.5,5.0,30.45,NE,46,0.0,3.0,81,0.00,,,0.00,weatherlink.com 1.10,2013-01-24 11:14:00,
2013-01-24 06:29:00,9.1,4.0,30.45,WNW,285,0.0,2.0,81,0.00,,,0.00,weatherlink.com 1.10,2013-01-24 11:29:00,
2013-01-24 06:44:00,8.7,5.0,30.46,WNW,285,0.0,1.0,83,0.00,,,0.00,weatherlink.com 1.10,2013-01-24 11:44:00,
2013-01-24 06:59:00,8.7,5.0,30.47,WNW,293,0.0,2.0,84,0.00,,,0.00,weatherlink.com 1.10,2013-01-24 11:59:00,
2013-01-24 07:14:00,9.1,5.0,30.48,WNW,290,0.0,2.0,84,0.00,,,0.00,weatherlink.com 1.10,2013-01-24 12:14:00,
2013-01-24 07:29:00,9.2,5.0,30.49,WNW,290,0.0,1.0,83,0.00,,,0.00,weatherlink.com 1.10,2013-01-24 12:29:00,
2013-01-24 07:44:00,8.6,5.0,30.50,WNW,290,0.0,1.0,83,0.00,,,0.00,weatherlink.com 1.10,2013-01-24 12:44:00,
2013-01-24 07:59:00,8.3,4.0,30.51,WNW,289,0.0,0.0,84,0.00,,,0.00,weatherlink.com 1.10,2013-01-24 12:59:00,
2013-01-24 08:14:00,8.5,5.0,30.52,WNW,290,0.0,1.0,84,0.00,,,0.00,weatherlink.com 1.10,2013-01-24 13:14:00,
2013-01-24 08:30:00,9.0,5.0,30.52,WNW,290,0.0,1.0,84,0.00,,,0.00,weatherlink.com 1.10,2013-01-24 13:30:00,
2013-01-24 08:45:00,9.9,6.0,30.52,NW,316,0.0,1.0,84,0.00,,,0.00,weatherlink.com 1.10,2013-01-24 13:45:00,
2013-01-24 09:00:00,11.0,7.0,30.53,NNW,344,0.0,3.0,82,0.00,,,0.00,weatherlink.com 1.10,2013-01-24 14:00:00,
2013-01-24 09:15:00,11.8,7.0,30.55,NE,56,0.0,2.0,82,0.00,,,0.00,weatherlink.com 1.10,2013-01-24 14:15:00,
2013-01-24 09:30:00,13.3,8.0,30.57,NW,307,2.0,4.0,80,0.00,,,0.00,weatherlink.com 1.10,2013-01-24 14:30:00,
2013-01-24 09:45:00,14.5,9.0,30.58,North,6,6.0,6.0,79,0.00,,,0.00,weatherlink.com 1.10,2013-01-24 14:45:00,
2013-01-24 10:00:00,14.9,9.0,30.59,North,350,4.0,5.0,78,0.00,,,0.00,weatherlink.com 1.10,2013-01-24 15:00:00,
2013-01-24 10:15:00,15.3,9.0,30.60,NNE,24,2.0,6.0,76,0.00,,,0.00,weatherlink.com 1.10,2013-01-24 15:15:00,
2013-01-24 10:30:00,16.3,9.0,30.61,NNE,12,5.0,5.0,74,0.00,,,0.00,weatherlink.com 1.10,2013-01-24 15:30:00,
2013-01-24 10:45:00,17.1,8.0,30.63,ESE,112,3.0,7.0,68,0.00,,,0.00,weatherlink.com 1.10,2013-01-24 15:45:00,
2013-01-24 11:00:00,17.6,9.0,30.63,NNE,30,4.0,6.0,69,0.00,,,0.00,weatherlink.com 1.10,2013-01-24 16:00:00,
2013-01-24 11:15:00,18.2,9.0,30.64,NNW,333,0.0,6.0,67,0.00,,,0.00,weatherlink.com 1.10,2013-01-24 16:15:00,
2013-01-24 11:30:00,18.8,8.0,30.64,NNE,21,0.0,5.0,64,0.00,,,0.00,weatherlink.com 1.10,2013-01-24 16:30:00,
2013-01-24 11:45:00,19.3,7.0,30.63,WSW,252,2.0,5.0,60,0.00,,,0.00,weatherlink.com 1.10,2013-01-24 16:45:00,
2013-01-24 12:00:00,19.9,8.0,30.63,ESE,105,1.0,4.0,60,0.00,,,0.00,weatherlink.com 1.10,2013-01-24 17:00:00,
2013-01-24 12:15:00,19.8,7.0,30.63,SE,136,1.0,7.0,57,0.00,,,0.00,weatherlink.com 1.10,2013-01-24 17:15:00,
2013-01-24 12:30:00,20.8,6.0,30.62,ESE,114,0.0,5.0,54,0.00,,,0.00,weatherlink.com 1.10,2013-01-24 17:30:00,
2013-01-24 12:45:00,20.8,7.0,30.61,North,3,2.0,7.0,56,0.00,,,0.00,weatherlink.com 1.10,2013-01-24 17:45:00,
2013-01-24 13:00:00,21.2,7.0,30.61,NNE,15,2.0,6.0,55,0.00,,,0.00,weatherlink.com 1.10,2013-01-24 18:00:00,
2013-01-24 13:15:00,21.5,8.0,30.60,ENE,65,1.0,5.0,56,0.00,,,0.00,weatherlink.com 1.10,2013-01-24 18:15:00,
2013-01-24 13:30:00,21.4,8.0,30.59,NE,39,1.0,5.0,57,0.00,,,0.00,weatherlink.com 1.10,2013-01-24 18:30:00,
2013-01-24 13:45:00,21.8,8.0,30.59,NNW,335,1.0,6.0,56,0.00,,,0.00,weatherlink.com 1.10,2013-01-24 18:45:00,
2013-01-24 14:00:00,22.1,9.0,30.59,WSW,250,1.0,7.0,58,0.00,,,0.00,weatherlink.com 1.10,2013-01-24 19:00:00,
2013-01-24 14:15:00,22.6,9.0,30.58,West,281,2.0,4.0,56,0.00,,,0.00,weatherlink.com 1.10,2013-01-24 19:15:00,
2013-01-24 14:30:00,22.7,9.0,30.57,East,87,3.0,8.0,56,0.00,,,0.00,weatherlink.com 1.10,2013-01-24 19:30:00,
2013-01-24 14:45:00,22.3,8.0,30.57,SSW,204,1.0,6.0,55,0.00,,,0.00,weatherlink.com 1.10,2013-01-24 19:45:00,
2013-01-24 15:00:00,23.2,9.0,30.57,ENE,72,2.0,4.0,54,0.00,,,0.00,weatherlink.com 1.10,2013-01-24 20:00:00,
2013-01-24 15:15:00,23.6,8.0,30.57,ENE,62,0.0,5.0,51,0.00,,,0.00,weatherlink.com 1.10,2013-01-24 20:15:00,
2013-01-24 15:30:00,23.1,8.0,30.57,NE,44,2.0,5.0,52,0.00,,,0.00,weatherlink.com 1.10,2013-01-24 20:30:00,
2013-01-24 15:45:00,23.0,8.0,30.56,ESE,113,1.0,5.0,53,0.00,,,0.00,weatherlink.com 1.10,2013-01-24 20:45:00,
2013-01-24 16:00:00,22.5,7.0,30.57,ESE,117,1.0,5.0,51,0.00,,,0.00,weatherlink.com 1.10,2013-01-24 21:00:00,
2013-01-24 16:16:00,22.4,8.0,30.56,SW,214,1.0,5.0,53,0.00,,,0.00,weatherlink.com 1.10,2013-01-24 21:16:00,
2013-01-24 16:31:00,22.1,9.0,30.57,ESE,113,1.0,4.0,57,0.00,,,0.00,weatherlink.com 1.10,2013-01-24 21:31:00,
2013-01-24 16:46:00,21.7,8.0,30.56,NE,39,2.0,4.0,56,0.00,,,0.00,weatherlink.com 1.10,2013-01-24 21:46:00,
2013-01-24 17:01:00,21.3,8.0,30.56,NNE,13,1.0,3.0,57,0.00,,,0.00,weatherlink.com 1.10,2013-01-24 22:01:00,
2013-01-24 17:31:00,20.7,8.0,30.57,ENE,77,1.0,5.0,59,0.00,,,0.00,weatherlink.com 1.10,2013-01-24 22:31:00,
2013-01-24 17:46:00,20.5,9.0,30.56,East,98,1.0,3.0,62,0.00,,,0.00,weatherlink.com 1.10,2013-01-24 22:46:00,
2013-01-24 18:01:00,20.3,9.0,30.56,ENE,74,1.0,2.0,62,0.00,,,0.00,weatherlink.com 1.10,2013-01-24 23:01:00,
2013-01-24 18:16:00,20.1,9.0,30.57,ESE,104,1.0,3.0,63,0.00,,,0.00,weatherlink.com 1.10,2013-01-24 23:16:00,
2013-01-24 18:31:00,20.0,9.0,30.56,ENE,77,0.0,4.0,62,0.00,,,0.00,weatherlink.com 1.10,2013-01-24 23:31:00,
2013-01-24 18:46:00,19.8,9.0,30.55,East,100,3.0,6.0,63,0.00,,,0.00,weatherlink.com 1.10,2013-01-24 23:46:00,
2013-01-24 19:01:00,19.6,9.0,30.55,East,96,3.0,6.0,64,0.00,,,0.00,weatherlink.com 1.10,2013-01-25 00:01:00,
2013-01-24 19:16:00,19.6,10.0,30.56,East,83,3.0,3.0,65,0.00,,,0.00,weatherlink.com 1.10,2013-01-25 00:16:00,
2013-01-24 19:31:00,19.6,10.0,30.55,NE,56,1.0,4.0,65,0.00,,,0.00,weatherlink.com 1.10,2013-01-25 00:31:00,
2013-01-24 19:46:00,19.6,10.0,30.54,ESE,115,1.0,6.0,66,0.00,,,0.00,weatherlink.com 1.10,2013-01-25 00:46:00,
2013-01-24 20:01:00,19.5,10.0,30.54,ESE,115,1.0,3.0,66,0.00,,,0.00,weatherlink.com 1.10,2013-01-25 01:01:00,
2013-01-24 20:16:00,19.3,10.0,30.52,East,90,2.0,5.0,67,0.00,,,0.00,weatherlink.com 1.10,2013-01-25 01:16:00,
2013-01-24 20:31:00,19.3,10.0,30.52,ENE,69,3.0,5.0,68,0.00,,,0.00,weatherlink.com 1.10,2013-01-25 01:31:00,
2013-01-24 20:46:00,19.3,10.0,30.52,ENE,75,1.0,7.0,68,0.00,,,0.00,weatherlink.com 1.10,2013-01-25 01:46:00,
2013-01-24 21:01:00,19.3,11.0,30.52,SE,134,1.0,5.0,69,0.00,,,0.00,weatherlink.com 1.10,2013-01-25 02:01:00,
2013-01-24 21:16:00,19.3,11.0,30.51,NE,53,2.0,4.0,70,0.00,,,0.00,weatherlink.com 1.10,2013-01-25 02:16:00,
2013-01-24 21:31:00,19.2,11.0,30.50,NE,51,0.0,5.0,70,0.00,,,0.00,weatherlink.com 1.10,2013-01-25 02:31:00,
2013-01-24 21:46:00,19.0,11.0,30.49,East,95,3.0,7.0,71,0.00,,,0.00,weatherlink.com 1.10,2013-01-25 02:46:00,
2013-01-24 22:01:00,18.9,11.0,30.49,ESE,118,2.0,5.0,71,0.00,,,0.00,weatherlink.com 1.10,2013-01-25 03:01:00,
2013-01-24 22:16:00,18.9,11.0,30.50,ENE,61,1.0,6.0,71,0.00,,,0.00,weatherlink.com 1.10,2013-01-25 03:16:00,
2013-01-24 22:31:00,18.9,11.0,30.49,ENE,72,2.0,8.0,71,0.00,,,0.00,weatherlink.com 1.10,2013-01-25 03:31:00,
2013-01-24 22:46:00,18.9,11.0,30.48,ENE,72,3.0,6.0,71,0.00,,,0.00,weatherlink.com 1.10,2013-01-25 03:46:00,
2013-01-24 23:01:00,19.0,11.0,30.48,NE,55,2.0,6.0,71,0.00,,,0.00,weatherlink.com 1.10,2013-01-25 04:01:00,
2013-01-24 23:16:00,19.1,11.0,30.47,East,91,4.0,8.0,70,0.00,,,0.00,weatherlink.com 1.10,2013-01-25 04:16:00,
2013-01-24 23:31:00,19.1,11.0,30.46,East,89,1.0,10.0,70,0.00,,,0.00,weatherlink.com 1.10,2013-01-25 04:31:00,
2013-01-24 23:46:00,19.2,11.0,30.47,East,89,1.0,7.0,69,0.00,,,0.00,weatherlink.com 1.10,2013-01-25 04:46:00,